GW1682 Weather Reports


time (UTC)temp
C
wind
direction
speed
KPH
gust
KPH
rain 1hr
cm
rain 24hr
cm
rain mn
cm
humidity
%
barometer
mb
20260505101731 22 262 1.6 11.3 0.00 0.00 0.00 39 1016.0
20260505100230 22 275 3.2 11.3 0.00 0.00 0.00 41 1016.0
20260505094731 22 216 3.2 11.3 0.00 0.00 0.00 49 1016.1
20260505093230 22 237 1.6 6.4 0.00 0.00 0.00 50 1016.1
20260505091759 22 244 3.2 11.3 0.00 0.00 0.00 50 1016.2
20260505090234 21 166 3.2 6.4 0.00 0.00 0.00 48 1016.1
20260505084749 21 188 3.2 8.0 0.00 0.00 0.00 50 1016.3
20260505081748 20 245 1.6 6.4 0.00 0.00 0.00 43 1016.4
20260505080235 20 244 1.6 6.4 0.00 0.00 0.00 41 1016.5
20260505074735 20 149 0.0 6.4 0.00 0.00 0.00 42 1016.5
20260505070238 18 265 0.0 3.2 0.00 0.00 0.00 44 1016.4
20260505064733 18 207 1.6 4.8 0.00 0.00 0.00 46 1016.4
20260505063232 17 255 0.0 0.0 0.00 0.00 0.00 46 1016.3
20260505061739 17 224 0.0 0.0 0.00 0.00 0.00 44 1016.3
20260505060239 16 224 0.0 0.0 0.00 0.00 0.00 53 1016.2
20260505054733 16 235 0.0 0.0 0.00 0.00 0.00 55 1016.3
20260505053232 15 195 0.0 3.2 0.00 0.00 0.00 60 1016.3
20260505051732 15 176 1.6 3.2 0.00 0.00 0.00 56 1016.2
20260505050238 14 159 1.6 3.2 0.00 0.00 0.00 53 1016.1
20260505041730 12 155 3.2 4.8 0.00 0.00 0.00 55 1015.9
20260505034730 12 144 1.6 4.8 0.00 0.00 0.00 58 1015.8
20260505031731 12 158 3.2 4.8 0.00 0.00 0.00 63 1015.9
20260505030230 12 175 3.2 4.8 0.00 0.00 0.00 64 1015.8
20260505024735 12 162 3.2 4.8 0.00 0.00 0.00 69 1015.9
20260505023228 12 159 1.6 4.8 0.00 0.00 0.00 76 1015.9
20260505021739 12 144 3.2 4.8 0.00 0.00 0.00 76 1016.0
20260505014739 12 151 3.2 4.8 0.00 0.00 0.00 75 1016.1
20260505013234 12 158 3.2 4.8 0.00 0.00 0.00 74 1016.2
20260505010228 13 148 3.2 8.0 0.00 0.00 0.00 72 1016.3
20260505004729 13 147 3.2 4.8 0.00 0.00 0.00 70 1016.4
20260505003229 13 154 3.2 6.4 0.00 0.00 0.00 68 1016.4
20260505001728 13 161 1.6 6.4 0.00 0.00 0.00 63 1016.5
20260504234727 12 149 0.0 3.2 0.00 0.00 0.00 60 1016.8
20260504233224 12 152 1.6 3.2 0.00 0.00 0.00 59 1016.8
20260504231718 12 161 0.0 3.2 0.00 0.00 0.00 59 1016.8
20260504230218 12 151 1.6 4.8 0.00 0.00 0.00 61 1017.1
20260504224716 12 157 3.2 6.4 0.00 0.00 0.00 62 1017.2
20260504223218 12 149 1.6 4.8 0.00 0.00 0.00 60 1017.3
20260504221712 12 158 3.2 4.8 0.00 0.00 0.00 58 1017.4
20260504220209 12 151 3.2 3.2 0.00 0.00 0.00 55 1017.5
20260504214708 12 158 0.0 0.0 0.00 0.00 0.00 53 1017.5
20260504213204 12 148 0.0 0.0 0.00 0.00 0.00 54 1017.5
20260504211704 13 155 0.0 0.0 0.00 0.00 0.00 53 1017.4
20260504210207 13 148 0.0 3.2 0.00 0.00 0.00 53 1017.5
20260504204704 13 159 0.0 0.0 0.00 0.00 0.00 50 1017.5
20260504203202 13 141 0.0 0.0 0.00 0.00 0.00 52 1017.5
20260504194708 13 161 0.0 4.8 0.00 0.00 0.00 53 1017.8
20260504193203 13 165 3.2 3.2 0.00 0.00 0.00 54 1017.5
20260504190203 13 145 1.6 3.2 0.00 0.00 0.00 61 1017.5
20260504184704 14 149 1.6 3.2 0.00 0.00 0.00 63 1017.4
20260504183202 14 148 1.6 3.2 0.00 0.00 0.00 63 1017.2
20260504181703 14 144 0.0 6.4 0.00 0.00 0.00 62 1017.2
20260504180204 15 142 1.6 4.8 0.00 0.00 0.00 62 1017.0
20260504174701 15 266 0.0 3.2 0.00 0.00 0.00 60 1017.0
20260504173158 15 248 1.6 4.8 0.00 0.00 0.00 60 1016.9
20260504170159 16 247 1.6 6.4 0.00 0.00 0.00 57 1016.8
20260504150150 20 324 8.0 19.3 0.00 0.00 0.00 29 1016.7
20260504140142 20 11 4.8 19.3 0.00 0.00 0.00 31 1016.8
20260504130137 20 292 8.0 22.5 0.00 0.00 0.00 32 1017.0
20260504120132 18 354 0.0 20.9 0.00 0.00 0.00 36 1017.5
20260504110130 18 6 6.4 22.5 0.00 0.00 0.00 36 1018.2